Miscellaneous Local Product
Issued by NWS Hastings, NE

Home | Current Version | Previous Version | Graphics & Text | Print | Product List | Glossary On
Versions: 1 2 3 4 5 6 7 8 9 10 11 12 13 14 15 16 17 18 19 20 21 22 23 24 25 26 27 28 29 30 31 32 33 34 35 36 37 38 39 40 41 42 43 44 45 46 47 48 49 50
000
AXUS43 KGID 300002
MISGRI

GID CWA HOURLY WEATHER ROUNDUP
NATIONAL WEATHER SERVICE HASTINGS NE
700 PM CDT MON JUN 29 2015

NOTE: "FAIR" INDICATES FEW OR NO CLOUDS BELOW 12,000 FEET WITH NO
SIGNIFICANT WEATHER AND/OR OBSTRUCTIONS TO VISIBILITY.

...SOUTH CENTRAL NEBRASKA...

CITY           SKY/WX    TMP DP  RH WIND       PRES   REMARKS
GRAND ISLAND   SUNNY     89  56  32 N6        29.96S
HASTINGS       SUNNY     87  60  40 N8        29.97S
KEARNEY        SUNNY     88  59  37 NE7       29.98S
ORD            SUNNY     88  58  36 N8        29.95F
YORK           SUNNY     84  59  42 N7        29.95S
AURORA         SUNNY     86  57  37 N3        29.96S
LEXINGTON      SUNNY     91  55  29 NE6       29.99S
HOLDREGE       SUNNY     88  55  31 N6        29.99S
HEBRON         SUNNY     85  56  36 NW3       29.94F

...NEBRASKA PANHANDLE...

CITY           SKY/WX    TMP DP  RH WIND       PRES   REMARKS
CHADRON        PTSUNNY   82  68  62 NE3       30.06S
ALLIANCE       MOSUNNY   82  57  42 NE8       30.10R
SCOTTSBLUFF    PTSUNNY   87  54  32 E13       30.08S
SIDNEY         SUNNY     87  52  29 VRB6      30.13S

...WESTERN AND NORTH CENTRAL NEBRASKA...

CITY           SKY/WX    TMP DP  RH WIND       PRES   REMARKS
VALENTINE      SUNNY     88  57  34 N8        30.00F
AINSWORTH      SUNNY     87  55  33 N9        30.01S
ONEILL         SUNNY     86  61  42 NE6       29.96F
BROKEN BOW     SUNNY     88  60  38 N7        29.99F
IMPERIAL       SUNNY     90  55  30 VRB5      30.05F
NORTH PLATTE   SUNNY     87  61  41 SW5       30.00F
MCCOOK         SUNNY     93  53  25 N5        30.00S HX  90

...EASTERN NEBRASKA...

CITY           SKY/WX    TMP DP  RH WIND       PRES   REMARKS
NORFOLK        SUNNY     84  61  45 NW6       29.94S
SO SIOUX CITY  SUNNY     82  60  47 NW7       29.90F
TEKAMAH        SUNNY     83  63  50 NW6       29.90S
COLUMBUS       SUNNY    N/A N/A N/A MISG        N/A
ALBION         SUNNY     85  57  39 NE7       29.96S
OMAHA EPPLEY   CLOUDY    83  63  50 NE6       29.90S
OFFUTT AFB     SUNNY     82  64  53 N6        29.90S
MILLARD        SUNNY     84  62  48 NW3       29.91R
LINCOLN        SUNNY     87  58  37 N8        29.93S HAZE
NEBRASKA CITY  SUNNY     83  51  33 N6        29.91F
BEATRICE       SUNNY     84  60  44 NW7       29.92F
FALLS CITY     SUNNY     83  65  54 NW5       29.89F

...NORTHERN KANSAS...

CITY           SKY/WX    TMP DP  RH WIND       PRES   REMARKS
GOODLAND       LGT RAIN  85  55  35 S14       30.09R
HILL CITY      SUNNY     96  51  21 NE9       29.97F HX  93
NORTON         CLEAR     93  48  21 NE9       29.98S HX  90
PHILLIPSBURG   SUNNY     97  48  19 N5        29.96S HX  93
SMITH CENTER   SUNNY     91  54  27 N3        29.96S
HAYS           SUNNY     93  50  22 N9        29.96F HX  90
RUSSELL        SUNNY     95  49  20 N9        29.94F HX  92
CONCORDIA      SUNNY     86  60  41 NE6       29.94F
SALINA         SUNNY     91  56  30 NW12      29.93F
TOPEKA         SUNNY     85  63  47 NW6       29.91S



USA.gov is the U.S. government's official web portal to all federal, state and local government web resources and services.